Theta_e
302 302 302 301 303 304 303 304 305 312 312 305 311 313 312 309 306 311 313 313 310 311 308 306 307 306 306 306 303 303 303 303 302 305 306 306 305 306 305 304 304 305 304 303 302 304 306 303 303 307 305 304 304 303
302 302 301 301 302 304 304 303 302 312 312 311 309 310 313 310 309 306 308 310 308 309 308 307 307 307 308 308 308 304 306 304 305 303 301 300 305 301 303 306 300 306 303 305 304 305 301 304 304 304 304 304 303 303
301 301 301 301 302 304 305 304 302 305 311 311 308 309 311 310 311 308 306 307 308 310 307 306 306 307 307 308 308 307 306 306 307 306 303 302 307 301 305 304 303 302 301 304 304 302 301 304 304 303 303 303 302 300
300 301 301 301 302 303 304 303 302 302 309 311 308 310 305 309 310 311 310 311 311 311 306 305 306 306 306 307 307 308 309 307 307 308 306 300 304 302 303 302 302 302 302 301 302 301 302 303 303 303 303 301 300 299
300 300 300 300 301 303 304 303 303 304 311 311 309 311 302 308 308 310 310 308 311 308 304 304 305 305 306 307 307 308 308 308 308 306 303 301 302 301 297 299 300 302 302 304 305 303 304 304 304 303 302 300 299 299
299 300 300 300 301 302 304 302 302 305 311 313 310 311 301 305 307 308 307 307 309 307 306 299 302 304 304 305 306 307 307 307 307 305 302 302 304 303 298 301 303 305 305 304 305 305 304 304 303 303 301 299 299 299
299 300 300 300 301 302 304 302 301 303 312 312 310 310 301 303 306 305 303 304 307 307 305 299 299 303 304 304 305 305 306 306 306 304 302 303 303 302 295 299 303 304 305 305 305 304 302 302 303 302 300 299 300 299
300 299 300 300 301 303 303 302 304 308 313 311 312 303 301 304 304 303 303 304 307 305 304 295 295 301 303 303 303 304 304 305 304 302 302 301 300 298 297 302 303 303 304 303 303 303 303 303 302 302 300 299 299 300
300 300 300 300 302 303 302 303 307 313 311 310 308 300 303 303 302 302 303 305 305 302 302 297 297 298 301 301 302 302 302 297 300 298 299 299 296 298 302 303 304 304 304 304 302 302 303 302 302 300 299 299 300 300
299 299 300 301 302 302 301 306 313 311 307 305 301 303 300 301 301 302 303 304 303 302 301 294 299 297 300 299 298 300 299 294 297 297 298 295 298 302 303 304 304 304 304 303 302 301 302 301 301 300 299 300 300 301
298 299 300 301 302 302 303 312 312 311 308 302 302 299 300 302 301 301 299 299 298 296 299 298 300 297 300 298 297 297 293 293 298 297 298 298 297 297 301 303 303 303 303 303 303 302 302 302 302 300 299 301 301 299
299 300 301 302 301 302 301 310 309 309 302 301 300 301 301 301 300 298 295 296 294 297 297 298 299 301 300 301 298 295 294 291 296 294 295 298 296 299 300 300 301 303 303 302 302 302 302 302 302 302 302 300 300 300
299 300 301 301 302 305 309 310 309 309 301 300 301 301 300 297 294 299 296 295 295 297 298 299 297 300 300 299 295 292 293 294 294 293 298 297 297 299 300 300 301 301 301 301 301 302 302 302 302 300 300 300 299 299
300 301 301 301 303 308 310 311 310 304 300 301 301 300 301 298 295 296 297 298 299 300 299 301 296 299 298 295 292 295 292 293 294 295 297 295 299 299 300 301 301 301 302 302 302 301 300 299 299 300 299 299 299 299
301 301 301 301 302 307 309 309 302 300 300 302 302 303 295 296 295 296 299 299 299 299 301 299 297 298 290 291 290 293 295 294 295 296 295 297 299 299 300 300 300 300 299 300 299 299 299 299 299 299 299 299 299 299
301 301 301 303 302 307 308 302 300 300 301 301 297 293 294 295 294 297 298 298 299 300 301 300 293 293 294 294 293 295 294 295 296 294 298 299 298 299 299 299 299 299 298 298 299 299 299 299 299 299 299 299 299 299
301 300 301 304 306 306 301 299 299 299 301 298 294 296 297 298 297 298 299 299 300 302 297 293 295 295 290 288 292 293 295 294 296 298 298 298 298 299 299 299 298 298 299 299 298 298 298 298 299 299 299 299 299 299
300 300 301 304 301 298 298 298 299 299 298 297 295 297 298 298 299 299 300 299 300 299 298 297 294 294 294 294 294 294 295 296 297 298 298 298 298 299 299 299 298 298 298 297 297 298 299 299 299 299 299 298 298 298
301 301 303 302 302 299 298 298 298 294 295 296 296 298 299 298 299 300 299 300 301 301 298 296 291 293 296 294 295 296 297 297 297 297 298 298 299 299 298 298 297 297 297 298 299 299 298 299 299 299 298 298 297 296
303 303 303 304 304 300 298 297 298 296 296 297 297 298 298 299 299 299 299 300 300 300 298 293 295 297 298 298 298 298 298 298 298 298 298 298 298 298 297 297 297 297 298 298 298 298 299 299 298 298 297 297 296 294
301 298 300 301 300 299 298 297 297 297 297 297 298 297 297 298 298 299 299 300 301 300 297 300 300 300 299 298 298 298 299 299 298 298 298 298 297 296 297 297 298 298 299 299 299 299 299 298 297 296 296 295 294 293
300 299 299 300 299 298 298 297 298 298 298 298 298 298 297 297 298 299 299 300 300 300 301 301 300 300 298 298 298 299 298 298 299 299 298 297 297 297 298 298 299 299 299 299 299 299 298 297 296 295 294 294 293 292
298 299 300 299 297 297 296 297 298 298 298 296 297 297 296 296 298 299 299 300 300 300 301 301 300 300 299 298 298 298 298 299 299 299 298 297 297 298 298 299 299 299 299 299 298 298 296 295 294 294 293 292 291 291
300 301 297 296 296 295 296 296 297 297 296 297 296 295 295 295 298 297 297 298 299 300 301 301 300 300 299 299 299 299 299 299 299 298 297 297 298 298 299 299 299 299 299 298 297 296 295 294 292 291 290 290 290 290
299 296 296 295 295 295 296 296 296 297 298 296 296 295 295 296 295 296 297 297 298 300 300 301 300 300 300 300 300 299 299 299 298 297 297 298 298 299 299 299 298 298 298 297 296 295 294 292 290 290 290 289 290 289
295 295 295 295 295 296 296 297 297 296 296 297 296 295 295 296 296 296 296 298 300 300 300 300 300 300 300 300 300 299 298 297 297 298 298 299 299 299 299 298 298 297 296 296 295 294 292 291 290 290 289 289 289 289
294 294 294 295 295 296 295 296 297 297 297 296 295 295 296 297 297 295 297 297 299 300 299 299 299 299 299 298 298 297 297 297 298 298 298 298 298 298 298 297 297 296 295 295 294 293 292 291 290 290 289 289 289 289
295 295 296 295 295 296 296 297 297 298 296 295 296 296 298 298 297 297 297 297 297 297 297 297 297 298 297 297 297 297 298 298 298 298 298 298 298 297 297 296 296 295 295 294 293 291 291 290 290 290 289 288 288 289
295 295 296 295 296 296 296 297 297 296 296 297 297 296 296 295 296 297 297 297 297 297 297 297 297 297 297 297 298 298 298 298 298 298 298 298 297 297 296 296 295 295 294 293 291 290 290 290 290 289 288 288 288 289
296 296 296 295 295 296 294 294 294 296 297 296 296 295 295 295 296 297 297 298 297 297 297 297 298 298 298 298 298 298 298 298 298 298 298 298 297 297 296 296 295 294 293 292 290 289 289 289 289 288 288 287 288 288
296 296 295 294 294 292 293 295 296 296 297 297 297 297 297 297 296 296 298 298 298 298 298 298 298 298 298 298 298 298 298 298 298 297 297 297 297 297 296 295 294 293 292 291 290 289 288 288 288 287 287 288 287 288
295 295 296 295 294 294 296 296 296 295 296 296 296 296 297 297 296 297 297 298 298 298 298 298 298 298 298 298 298 298 298 298 298 297 297 297 297 296 295 294 294 292 291 290 289 288 287 287 287 287 286 287 287 287
295 295 295 295 294 295 294 295 295 294 294 294 294 295 295 295 294 296 297 298 298 298 298 298 297 297 297 298 298 298 297 297 297 297 297 296 296 295 294 293 292 291 290 289 288 287 287 286 286 286 286 286 286 286
Wind_Speed
35 32 31 28 29 25 30 42 47 30 24 23 28 21 18 18 26 31 31 24 19 4 7 9 6 6 9 9 5 11 6 2 2 2 3 3 3 4 1 2 4 6 6 3 2 1 6 9 5 6 2 9 11 9
35 32 31 29 30 27 27 33 46 33 24 25 29 22 21 19 20 27 26 26 20 10 4 8 8 8 8 9 8 21 2 7 10 4 2 3 2 1 3 3 2 2 5 4 8 5 3 16 3 5 10 12 10 7
35 33 31 30 31 28 26 30 44 51 27 26 29 24 23 21 19 24 26 22 22 11 5 8 6 7 8 10 10 7 5 8 8 5 8 3 2 3 4 5 3 3 6 2 1 3 10 11 11 9 9 8 7 5
36 35 33 30 31 29 24 31 38 50 35 28 30 25 24 24 22 23 23 19 23 9 6 5 9 8 6 8 9 8 3 11 12 7 4 3 3 6 3 1 3 3 8 5 5 6 3 8 14 12 11 8 7 4
35 35 34 32 32 33 28 32 34 44 32 30 30 27 23 25 23 23 22 18 24 7 7 7 10 4 5 6 6 7 8 11 7 4 3 2 4 4 2 2 3 10 6 5 5 7 4 3 15 16 13 10 6 3
36 35 35 33 33 32 29 29 33 43 33 32 29 27 23 26 25 21 10 20 26 13 4 3 5 5 7 7 7 9 9 7 4 4 2 3 3 3 3 3 7 16 13 11 2 3 8 4 13 15 12 8 4 1
36 35 33 32 32 32 30 30 37 46 43 33 29 26 23 26 29 24 7 12 29 19 5 5 2 5 9 8 6 6 6 4 3 4 2 3 3 3 2 3 4 10 13 10 9 6 6 14 10 14 8 7 3 2
35 34 33 32 33 32 30 32 43 44 48 32 28 24 25 28 29 19 7 16 30 18 6 4 1 4 8 3 3 4 4 4 3 3 3 2 3 1 3 14 6 7 9 9 11 9 4 9 6 11 10 8 5 6
34 32 32 32 31 30 31 40 44 45 39 32 27 24 26 21 14 16 13 23 23 7 9 4 6 4 9 4 4 3 3 3 1 2 2 2 1 5 8 10 14 16 11 7 15 11 6 7 9 11 9 7 7 10
33 31 31 34 31 30 32 39 45 42 40 32 32 20 9 16 18 23 12 10 8 5 3 4 8 3 7 3 3 3 3 2 2 1 1 2 4 19 14 9 9 14 14 10 16 14 11 10 9 10 8 7 10 15
31 31 33 32 30 26 38 42 49 47 45 36 17 10 23 35 20 7 6 5 5 2 4 6 5 6 7 4 3 1 2 0 2 2 3 2 4 5 5 17 12 13 14 11 10 7 10 8 7 9 10 12 14 15
30 33 34 30 30 25 32 49 42 57 36 32 15 29 29 10 5 5 1 2 2 7 8 9 8 8 8 5 6 2 3 2 3 4 2 3 4 6 8 7 11 17 12 14 12 9 9 10 8 9 13 11 13 18
32 33 32 29 30 35 39 58 54 53 43 30 13 10 7 4 3 9 8 2 3 11 14 13 5 7 7 4 7 3 4 3 6 1 4 5 2 11 11 10 12 12 9 9 10 8 9 9 10 8 9 13 19 22
32 32 30 27 33 25 68 53 54 52 42 10 8 5 7 5 5 5 6 6 10 17 32 27 11 6 5 4 4 5 1 3 1 2 6 3 13 15 12 14 14 13 10 8 7 6 6 7 7 9 14 16 18 19
33 30 27 26 31 40 62 50 58 56 21 7 7 6 5 5 3 10 20 21 16 38 38 18 10 6 2 4 2 5 3 4 6 5 3 7 18 17 18 17 14 11 8 6 4 5 7 8 9 13 14 15 18 20
30 26 29 29 24 60 60 60 50 45 10 5 3 4 6 6 2 6 15 21 31 37 23 9 4 4 2 5 4 6 8 7 4 4 7 20 23 19 17 16 12 7 3 3 5 7 9 11 14 14 14 16 17 18
28 25 30 35 38 70 67 58 29 9 6 5 3 6 9 5 10 13 19 19 45 31 3 6 6 5 5 3 3 4 6 4 5 11 19 27 23 19 15 11 6 4 5 6 9 11 13 14 13 13 15 14 15 14
29 31 29 35 65 61 47 27 8 6 3 4 3 9 5 5 22 19 15 36 26 13 12 5 11 4 6 9 4 4 12 7 11 19 28 24 20 14 7 4 5 6 8 10 11 10 9 9 12 12 13 13 13 14
26 23 44 76 68 39 9 5 5 5 3 6 12 12 7 12 14 21 31 33 19 13 19 7 5 4 4 7 7 13 19 19 24 27 25 19 12 7 5 7 8 9 8 7 7 7 10 11 10 10 12 13 14 17
25 49 80 67 47 12 7 6 7 6 4 7 10 11 12 10 21 28 33 20 20 10 4 3 3 5 9 10 13 21 25 26 31 28 19 12 7 8 9 9 8 6 7 7 9 9 8 7 9 11 11 12 16 18
63 61 55 48 26 11 8 9 7 6 10 8 16 6 11 16 17 21 16 18 5 3 2 5 8 12 12 13 17 27 30 30 25 18 12 7 7 7 7 6 5 4 5 5 6 6 6 8 9 10 12 13 16 18
43 45 35 25 8 6 7 5 13 13 6 12 9 7 10 6 7 9 13 3 4 4 7 12 16 16 18 21 29 28 29 20 12 5 1 3 5 7 8 6 5 4 6 6 5 6 7 8 10 12 13 15 16 16
43 34 11 7 6 5 7 16 6 6 5 5 6 5 3 4 9 15 4 5 6 9 14 14 17 17 19 23 25 26 22 15 9 6 5 6 7 7 6 5 5 4 5 5 6 7 8 9 11 14 14 11 14 15
36 10 5 5 5 4 9 4 6 7 8 3 3 5 3 5 15 3 3 4 7 14 17 20 23 23 21 22 24 22 16 12 10 9 9 10 9 7 6 5 5 6 6 6 7 8 9 10 13 10 10 11 13 14
8 3 7 5 6 6 4 5 4 3 5 3 4 3 4 7 2 3 4 5 15 19 22 24 26 28 28 25 22 19 16 15 13 12 11 11 9 9 8 8 8 7 7 7 7 8 8 9 7 6 8 11 13 14
5 2 3 4 4 5 5 5 5 4 5 4 3 8 6 3 4 5 4 11 18 27 29 31 33 31 26 22 22 20 18 15 14 13 11 10 9 9 8 8 8 8 8 8 8 7 7 4 4 5 8 11 11 12
5 3 3 4 10 10 6 7 13 4 5 5 5 5 4 5 6 4 9 17 21 22 22 26 27 26 25 23 20 18 17 17 15 11 10 9 9 9 9 7 8 8 8 7 7 6 5 3 3 6 7 10 11 11
4 7 8 9 6 5 6 5 5 4 4 9 11 5 11 9 6 9 10 18 16 16 20 21 20 19 19 20 21 21 22 20 16 13 11 9 8 8 8 9 8 8 6 6 6 7 5 3 2 5 7 9 10 10
4 12 9 4 5 6 3 3 3 5 17 16 4 4 4 5 10 15 23 20 19 24 28 28 26 23 22 23 23 22 21 18 16 14 12 10 10 10 11 11 10 9 7 5 3 2 1 2 2 3 6 8 8 8
3 4 5 4 4 3 2 3 8 20 17 11 12 13 10 12 15 22 26 24 25 27 27 27 27 26 27 26 25 23 20 16 13 11 10 10 8 10 12 13 12 10 8 5 3 3 3 4 2 2 4 5 5 6
6 5 6 5 4 4 16 26 26 24 17 14 21 23 15 11 17 23 24 24 25 26 26 25 24 23 22 21 20 20 20 18 15 14 13 11 9 10 12 12 12 11 8 6 3 3 3 5 3 1 2 3 4 5
5 4 4 5 3 13 21 13 10 13 14 16 13 17 19 16 8 15 24 26 25 25 23 23 23 22 19 16 14 14 13 12 14 14 14 12 10 11 13 14 14 12 9 7 4 2 5 5 4 2 0 3 4 4
20 26 22 11 4 4 5 8 5 4 8 6 7 5 6 5 5 8 21 23 23 22 21 19 16 17 17 18 16 15 13 13 12 14 14 13 12 13 13 14 14 13 11 9 5 4 6 5 4 3 2 1 3 4
Wind_Direction
264 263 261 256 252 250 253 242 249 265 263 250 231 218 213 217 212 209 212 213 215 244 186 192 175 164 160 169 146 155 108 193 91 138 149 191 157 215 121 147 175 172 150 183 104 148 278 162 125 179 166 135 154 156
259 258 257 254 253 252 258 263 238 243 253 250 233 223 211 214 210 207 211 212 214 217 172 189 189 184 189 175 152 168 203 158 169 98 138 117 147 102 150 242 22 246 192 180 187 214 256 193 179 207 168 172 173 181
256 255 254 253 249 244 254 263 233 241 249 253 234 224 212 210 208 203 202 201 190 186 160 170 168 169 174 179 172 165 201 175 179 142 150 145 160 130 166 236 194 232 183 206 87 218 232 227 230 206 186 180 171 189
254 253 252 248 247 244 248 254 241 236 235 247 237 223 214 206 207 203 198 194 185 167 141 174 176 176 183 184 197 193 187 172 157 145 109 132 143 191 200 222 197 195 151 178 262 268 262 233 214 195 180 178 181 179
251 251 250 246 241 236 238 247 232 229 233 240 230 225 217 201 202 200 200 198 194 197 149 134 155 155 179 184 193 186 175 166 155 123 102 179 148 136 81 75 242 192 184 175 225 205 179 203 201 192 190 187 178 168
249 247 246 245 240 234 240 245 237 225 227 231 221 223 214 196 194 184 202 209 202 196 159 115 148 150 149 155 166 158 162 156 144 127 125 132 169 187 146 211 252 208 213 216 215 208 217 265 181 186 190 180 158 357
244 241 241 239 235 235 238 252 232 222 225 214 215 217 204 188 186 182 206 192 190 186 177 93 70 140 148 144 139 128 135 122 113 117 113 151 161 193 133 215 256 222 221 221 222 176 156 169 185 187 183 170 193 258
237 236 236 232 228 234 239 248 210 229 210 200 208 203 187 179 186 197 182 169 170 170 171 116 342 130 157 130 108 123 122 127 81 113 124 136 149 204 262 238 232 204 189 196 190 182 164 191 176 183 190 198 244 288
231 232 230 224 228 233 242 218 208 200 186 194 185 180 165 176 192 186 151 157 165 168 156 126 138 189 151 108 112 113 121 65 100 94 127 147 194 223 229 228 208 196 185 184 184 188 185 177 185 192 206 232 276 300
228 227 223 221 225 232 225 219 185 195 175 170 159 155 180 175 157 145 140 160 161 191 138 94 126 121 145 121 84 108 56 88 136 250 163 180 255 250 241 222 212 202 206 187 180 201 196 195 204 213 225 262 286 304
223 220 219 221 221 231 215 188 177 172 167 153 168 175 148 146 146 162 140 148 155 61 154 127 133 129 149 120 139 105 146 93 126 233 161 269 272 247 234 213 197 187 192 202 212 218 214 213 227 232 255 286 301 306
215 215 217 217 221 229 208 176 177 165 158 164 161 136 141 156 145 126 128 106 156 187 153 134 134 120 128 130 109 126 111 68 203 135 81 259 249 214 170 171 195 195 216 217 211 211 213 219 247 259 291 295 303 305
209 211 210 215 223 212 204 183 184 173 151 150 144 163 173 158 81 164 174 229 148 172 166 153 126 120 120 113 87 101 92 175 130 76 234 234 228 178 171 159 151 150 144 151 181 204 223 243 259 273 291 306 310 309
205 205 205 212 218 212 172 182 181 162 149 154 162 149 199 188 227 177 164 153 159 155 144 132 107 119 121 88 129 101 175 99 56 246 235 237 198 174 173 161 156 150 150 155 173 195 217 237 257 288 304 312 311 309
201 201 203 208 216 185 178 177 159 157 161 159 167 204 194 164 97 143 136 126 133 147 139 112 90 109 81 101 93 111 126 235 213 230 228 200 167 165 156 155 152 148 149 163 202 238 253 276 291 296 305 310 310 309
196 198 210 200 204 176 172 155 150 152 169 158 190 119 125 96 73 129 126 125 142 144 130 106 112 89 113 130 126 200 149 217 232 212 193 160 157 156 156 153 146 152 185 219 257 270 285 289 293 299 306 310 309 308
191 201 198 202 178 169 157 146 132 140 194 174 194 204 161 132 149 159 154 153 155 147 121 127 112 171 104 80 201 191 204 215 193 175 162 159 156 152 147 154 165 186 210 255 278 286 284 287 291 299 304 307 306 305
200 200 184 168 143 135 132 134 116 138 147 205 162 152 151 132 144 145 151 155 155 144 137 151 128 153 170 166 214 217 201 177 165 163 159 157 157 159 162 178 194 237 268 280 288 288 283 289 299 303 303 306 306 309
203 208 181 166 159 135 118 140 107 112 160 133 126 123 110 131 156 158 151 159 158 142 133 131 102 166 191 204 184 171 171 165 156 156 159 161 168 186 230 233 251 277 282 282 272 273 293 302 306 307 305 304 304 313
177 169 167 164 163 121 103 121 146 145 144 135 126 123 114 113 134 143 151 145 140 145 123 130 180 189 172 174 173 173 161 157 153 151 155 166 201 240 246 250 257 258 268 263 272 286 298 303 308 308 307 302 307 316
155 145 145 143 118 106 128 145 132 115 118 105 126 90 93 112 129 146 146 152 147 157 143 174 160 150 146 155 159 158 154 150 147 150 158 181 213 222 217 221 231 249 267 269 276 285 291 302 309 310 306 306 308 316
155 150 140 128 82 90 89 116 123 116 103 141 122 104 104 100 130 160 150 136 209 191 169 167 163 154 153 156 158 160 158 158 163 171 213 223 198 198 194 200 218 248 267 271 263 275 293 304 311 312 312 311 312 317
153 145 111 87 94 83 107 125 86 115 130 160 124 89 80 117 159 146 173 211 219 193 177 165 167 160 161 160 163 168 174 188 206 231 256 226 205 203 212 224 235 259 260 248 272 288 299 309 309 310 314 317 319 327
152 134 89 98 97 105 141 122 119 116 118 138 82 94 111 129 154 163 192 222 201 180 190 186 179 176 175 176 179 185 197 214 224 241 226 212 209 213 221 228 234 237 248 267 271 285 296 311 325 339 346 349 350 347
114 107 105 88 122 119 119 127 125 113 111 110 94 126 151 146 111 170 199 227 194 192 196 194 195 200 196 194 196 199 207 220 230 218 202 203 213 218 223 217 218 229 243 251 264 279 298 316 325 340 338 346 346 349
83 133 120 143 153 129 160 133 146 122 113 105 101 130 150 132 162 211 204 202 197 203 199 197 196 196 200 203 198 199 205 201 196 194 199 210 214 219 220 219 227 230 234 249 264 281 299 317 320 331 336 343 347 348
120 133 134 126 133 132 107 88 122 109 117 133 154 150 139 168 216 219 184 183 191 199 199 202 200 196 192 187 187 184 186 186 186 187 190 194 205 218 223 226 231 230 241 243 260 279 289 296 305 315 326 338 344 347
115 147 148 159 123 110 113 114 144 135 141 152 136 158 166 182 199 167 162 161 163 170 171 172 176 181 182 181 179 174 172 176 178 183 191 200 213 217 215 220 222 223 225 240 266 278 263 225 267 301 320 335 339 345
89 125 125 89 87 71 77 121 138 146 149 158 127 146 155 134 143 152 154 158 158 157 154 155 155 160 163 167 169 174 181 185 191 190 198 209 215 216 215 215 216 219 224 236 271 228 201 228 209 291 317 334 341 344
110 97 98 56 64 77 74 100 132 136 139 123 107 115 107 119 139 151 155 153 155 161 159 157 154 158 162 168 174 182 189 198 203 213 221 225 225 216 215 214 214 218 220 230 274 244 222 197 181 291 320 346 1 2
104 94 79 68 78 60 108 114 111 114 107 110 134 128 125 123 132 147 153 150 152 153 154 158 161 166 171 176 185 191 197 203 209 218 224 229 229 218 210 209 212 212 211 223 231 266 165 171 178 191 321 38 25 10
65 89 122 104 96 104 109 83 81 91 93 104 103 117 120 121 99 152 157 156 158 162 168 172 176 181 187 193 196 203 211 215 220 225 226 227 220 205 202 204 206 206 209 215 219 209 165 176 190 233 89 43 34 15
98 99 99 91 94 93 87 105 82 68 48 58 53 84 99 86 111 152 169 171 174 179 186 191 196 200 202 204 208 218 226 227 220 214 214 211 205 203 199 199 201 204 208 209 205 185 180 187 195 198 164 77 41 30